Wind_Speed
18 19 19 19 19 19 19 19 18 19 20 21 20 19 19 20 21 21 22 22 23 24 25 26 28 28 27 27 25 26 27 27 29 31 33 32 32 33 32 32 32 32 33 32
18 18 18 20 20 20 20 20 19 18 19 20 20 19 19 19 20 21 22 22 23 23 23 24 25 27 28 27 27 27 28 28 28 28 30 32 32 31 31 32 32 32 33 34
18 18 18 19 19 20 20 20 20 19 19 21 21 19 18 19 20 21 21 22 22 22 23 25 26 26 26 27 26 27 27 29 29 28 29 32 31 30 30 30 31 32 33 34
19 19 19 19 20 20 20 20 20 20 20 20 22 21 19 19 20 21 21 21 21 21 22 23 24 25 26 26 26 27 28 28 27 28 29 30 30 30 30 31 31 32 32 34
21 20 20 20 20 21 20 21 21 21 22 22 22 23 19 20 21 21 21 22 21 21 21 22 22 24 26 26 27 27 28 29 28 29 30 30 29 30 31 32 33 33 33 34
23 22 22 21 21 22 22 22 23 23 23 23 22 23 22 21 22 22 22 22 22 22 22 21 22 24 26 27 28 28 28 29 28 29 30 30 31 31 32 33 34 35 35 35
24 24 23 23 23 23 23 23 24 25 24 24 22 24 23 21 22 23 23 23 23 24 23 23 22 23 25 27 28 28 28 29 30 30 30 31 31 32 33 34 35 35 35 35
27 26 25 25 24 25 24 24 25 26 26 25 24 24 22 22 23 23 24 24 24 24 24 24 24 25 25 27 29 30 31 31 32 33 31 31 32 33 34 35 35 36 37 37
30 29 28 27 26 26 26 26 25 27 27 26 26 25 24 23 23 24 25 26 26 25 25 26 27 27 27 27 29 29 31 32 33 33 33 32 34 35 35 36 37 38 38 38
33 33 31 30 29 28 28 27 27 27 28 28 27 25 24 24 24 24 25 26 27 27 27 27 28 29 29 30 30 29 30 32 33 33 33 35 35 35 35 36 37 38 39 39
34 35 33 32 31 31 30 28 29 30 30 30 29 26 25 25 25 26 27 28 29 29 29 29 30 30 32 32 32 32 32 32 34 34 34 35 35 36 35 36 37 39 39 40
36 37 36 34 33 34 33 31 31 31 31 31 30 28 27 28 28 28 29 30 31 31 31 32 32 32 33 33 33 33 34 34 34 35 35 35 36 36 37 38 38 39 40 41
38 38 37 36 35 35 35 34 33 33 33 33 32 29 30 30 31 30 31 31 32 33 33 33 34 34 34 34 34 34 35 36 36 36 37 37 37 38 38 39 39 40 41 42
40 40 39 38 36 35 35 34 34 35 36 35 34 31 31 33 33 33 33 34 34 35 35 35 35 36 36 35 35 36 36 37 37 38 38 39 39 39 40 40 42 42 43 43
41 42 41 40 39 38 37 36 36 37 37 38 35 34 32 34 35 35 35 35 36 37 37 37 37 37 37 37 37 37 38 39 39 40 40 41 41 42 42 42 43 43 45 46
42 43 43 42 41 42 41 39 38 38 38 39 38 36 35 37 37 38 38 38 38 38 38 38 39 39 39 39 40 40 41 41 42 42 43 43 43 44 45 45 45 45 45 46
42 42 44 44 42 43 43 41 41 41 41 41 41 39 39 39 40 40 40 40 40 40 40 40 40 41 41 41 42 42 42 43 44 45 45 46 46 46 46 47 47 47 47 48
41 41 42 44 44 45 43 42 42 43 43 44 44 43 42 42 42 42 42 42 41 42 42 41 41 42 42 43 43 43 44 44 45 46 47 47 48 48 49 49 50 50 50 49
41 41 42 43 44 45 43 42 42 43 43 44 45 45 44 44 44 43 43 43 42 42 43 43 43 43 44 44 45 45 46 46 46 47 47 48 49 49 50 50 51 51 51 51
40 40 41 42 43 44 43 43 43 44 44 44 45 45 45 44 44 43 43 43 43 44 44 45 45 45 45 46 47 47 48 48 48 48 48 49 49 50 50 51 51 51 50 50
39 40 41 41 43 43 42 42 42 43 43 43 43 43 44 44 44 44 44 44 44 45 45 46 46 47 47 48 48 49 49 49 49 49 50 50 50 51 51 51 51 51 51 51
39 40 41 42 43 42 43 44 44 44 43 43 43 43 43 43 43 43 43 43 44 45 45 46 46 47 47 48 48 49 49 49 49 49 50 50 50 51 51 51 51 51 52 52
41 41 41 42 42 43 43 44 45 45 45 44 43 43 43 42 41 41 42 42 43 44 45 45 46 47 47 48 48 48 48 49 49 49 49 49 49 50 50 50 50 51 52 53
40 41 42 43 42 42 43 43 44 44 45 44 43 43 43 42 42 42 42 43 44 44 45 46 46 46 46 47 48 48 48 48 48 48 48 49 49 50 50 50 51 51 51 52
39 40 41 41 42 42 42 43 44 44 44 44 44 43 43 43 43 43 44 44 45 45 45 45 45 46 46 46 46 47 47 47 48 48 48 49 49 50 50 50 51 51 51 51
37 38 39 39 40 41 41 42 43 44 44 43 43 42 42 42 43 43 44 44 44 44 44 44 45 45 45 45 45 45 46 47 47 48 48 48 48 49 50 50 50 50 51 51
Wind_Direction
277 274 273 273 272 272 271 271 272 272 272 270 269 269 264 263 264 261 263 264 264 261 260 255 250 247 246 245 245 243 243 243 240 241 240 241 242 243 242 242 242 243 244 246
275 274 273 272 273 273 272 273 273 274 275 272 269 269 267 267 270 267 263 265 266 262 259 255 252 251 248 246 247 248 245 245 245 242 241 242 240 241 242 242 242 243 245 247
275 276 274 273 274 275 273 274 273 272 272 274 272 270 270 270 270 269 267 267 267 267 263 260 255 253 251 251 249 249 248 246 246 244 246 246 244 242 242 244 245 245 246 247
273 272 273 273 273 274 274 274 274 273 273 273 273 272 270 270 269 270 269 269 269 270 267 264 258 255 255 256 254 253 253 250 248 247 246 245 247 245 247 247 249 249 249 251
271 270 269 271 271 273 273 273 274 274 274 273 274 275 272 272 271 270 269 268 268 269 268 264 259 257 258 260 257 255 253 255 256 253 250 249 248 247 248 250 251 252 253 253
269 268 269 269 270 271 273 274 273 274 274 273 274 276 273 272 271 270 269 269 266 267 267 265 261 258 259 259 257 257 256 254 254 254 250 247 247 249 250 252 252 253 254 255
265 266 268 269 268 268 270 273 274 275 275 275 276 276 275 273 273 272 271 270 267 267 267 266 266 261 258 258 258 258 258 256 256 254 252 248 248 251 253 253 253 253 255 257
264 264 267 269 269 268 269 271 274 276 276 276 277 277 278 275 274 273 272 271 269 267 266 266 266 265 261 259 259 259 259 259 257 256 253 252 253 255 256 256 255 255 256 257
264 264 265 267 268 269 269 270 273 275 275 277 277 278 277 278 277 275 274 273 270 268 267 268 267 265 263 260 260 261 261 260 258 258 256 257 258 258 259 259 257 256 257 259
264 264 264 265 266 267 270 270 271 273 277 278 279 279 278 277 278 276 275 273 271 269 269 270 269 267 264 263 262 262 263 261 260 260 260 258 259 260 260 260 260 259 259 261
264 264 264 264 263 266 266 267 269 272 275 277 279 279 278 278 278 276 274 273 272 271 270 270 270 269 266 264 262 263 264 262 260 260 261 259 258 260 261 262 263 263 262 263
264 264 264 263 263 263 264 266 268 270 273 275 277 278 277 277 277 277 275 273 272 272 271 270 269 268 267 266 265 265 264 265 263 262 261 259 259 260 261 262 263 263 264 265
262 264 264 263 262 263 265 266 268 269 270 271 273 276 275 275 275 275 274 273 272 270 269 268 268 268 267 267 266 266 265 266 265 264 264 262 262 262 262 263 264 265 266 266
260 261 261 263 262 263 264 265 266 267 268 269 272 272 272 273 274 274 273 272 271 269 267 267 268 267 266 266 267 267 267 267 266 266 266 266 265 263 263 264 265 266 267 268
259 260 260 260 261 260 261 262 263 265 266 268 270 271 271 271 271 272 273 272 271 270 269 268 269 268 267 266 267 268 268 268 268 269 268 268 267 266 265 266 266 268 269 269
260 260 260 260 261 261 261 261 262 263 264 267 269 270 270 270 270 271 272 272 271 271 269 268 268 268 267 267 267 267 268 268 268 268 268 268 267 267 267 267 268 269 270 270
261 262 262 262 262 263 262 262 262 264 266 268 270 271 271 271 270 271 271 271 270 269 267 267 267 267 267 268 268 268 268 268 268 268 268 268 267 267 267 267 268 269 270 270
260 261 263 264 264 264 265 265 266 267 268 269 271 271 271 271 271 270 270 270 270 268 266 266 266 266 265 266 267 268 268 269 269 269 269 268 268 268 268 269 269 270 271 271
260 262 263 265 266 266 266 267 269 269 269 269 269 270 270 271 270 269 269 269 269 268 267 266 266 266 265 266 267 268 269 270 270 270 270 269 269 269 269 270 271 271 271 271
261 261 263 264 267 268 268 269 270 271 271 271 271 271 271 271 271 270 269 269 268 268 268 267 267 267 267 268 269 269 270 270 271 271 271 272 272 271 271 271 271 272 271 271
262 262 263 265 267 269 270 271 271 271 272 273 272 272 272 272 271 271 270 270 269 268 269 269 269 269 269 270 270 271 271 272 272 272 272 272 273 273 272 272 271 271 271 271
264 264 264 266 267 269 270 270 272 272 272 274 273 273 273 272 272 271 270 269 270 270 271 271 271 270 270 270 271 272 272 272 272 273 273 273 273 273 273 272 272 272 272 272
264 264 264 265 268 269 270 271 272 272 272 273 273 272 272 271 271 271 270 270 271 271 272 272 272 272 272 272 272 273 272 273 273 273 274 274 273 273 273 273 272 272 273 273
265 265 265 265 266 268 269 270 271 271 272 272 273 272 271 271 271 271 272 272 272 272 273 273 273 272 272 273 273 273 273 273 273 273 274 274 273 273 274 273 273 273 274 274
264 265 266 266 267 267 267 268 269 270 271 271 272 272 272 272 271 272 272 272 273 273 273 273 273 273 273 273 274 274 274 273 273 274 274 274 273 274 274 274 274 274 274 274
263 264 266 267 268 268 268 268 269 269 269 270 270 270 270 271 271 271 272 272 272 272 273 273 274 274 274 273 274 274 274 274 275 274 274 274 274 274 274 274 274 274 275 275
Height
5715 5715 5714 5714 5714 5713 5713 5712 5712 5712 5711 5711 5711 5711 5711 5711 5711 5712 5712 5712 5713 5713 5713 5714 5715 5716 5718 5719 5721 5724 5726 5728 5731 5734 5738 5741 5744 5747 5750 5753 5755 5758 5761 5764
5711 5711 5711 5710 5709 5709 5708 5708 5708 5708 5707 5707 5707 5707 5707 5707 5707 5708 5708 5708 5708 5708 5708 5709 5710 5711 5712 5714 5716 5718 5720 5722 5725 5728 5731 5734 5738 5741 5744 5746 5749 5752 5754 5756
5707 5708 5707 5706 5705 5705 5704 5704 5704 5703 5702 5702 5702 5703 5704 5703 5703 5703 5704 5704 5704 5703 5704 5705 5705 5705 5707 5708 5710 5712 5714 5716 5719 5722 5725 5727 5730 5733 5736 5739 5742 5744 5747 5749
5703 5703 5702 5702 5701 5700 5700 5700 5699 5698 5698 5698 5698 5698 5700 5699 5699 5699 5699 5700 5699 5699 5699 5700 5700 5701 5702 5704 5706 5708 5709 5711 5714 5716 5719 5722 5725 5727 5730 5732 5735 5737 5739 5742
5698 5698 5697 5697 5697 5696 5696 5695 5694 5693 5693 5693 5693 5692 5695 5694 5694 5695 5695 5695 5695 5695 5694 5695 5696 5697 5698 5699 5701 5703 5705 5707 5709 5711 5713 5716 5718 5721 5723 5725 5727 5730 5731 5734
5693 5693 5692 5692 5692 5691 5690 5690 5690 5689 5688 5688 5689 5687 5688 5689 5689 5690 5690 5690 5690 5690 5690 5690 5691 5692 5693 5695 5696 5698 5700 5702 5704 5705 5707 5709 5712 5714 5716 5718 5720 5722 5724 5726
5688 5687 5687 5687 5686 5686 5686 5686 5685 5683 5682 5683 5683 5681 5683 5684 5683 5684 5684 5684 5685 5685 5685 5685 5685 5686 5688 5689 5691 5692 5694 5696 5697 5699 5701 5703 5705 5707 5709 5710 5712 5714 5716 5718
5681 5682 5682 5681 5681 5680 5680 5680 5680 5679 5678 5678 5677 5676 5679 5678 5678 5678 5678 5678 5679 5679 5680 5680 5680 5681 5682 5684 5685 5687 5688 5689 5691 5692 5694 5695 5697 5699 5701 5702 5704 5706 5707 5709
5673 5674 5675 5675 5674 5674 5673 5673 5674 5672 5671 5671 5671 5672 5673 5673 5672 5672 5672 5673 5673 5673 5674 5675 5675 5676 5676 5677 5679 5680 5681 5682 5683 5685 5686 5688 5690 5691 5692 5694 5695 5697 5698 5699
5664 5666 5667 5667 5667 5667 5667 5667 5666 5665 5664 5664 5665 5666 5667 5666 5666 5666 5666 5666 5667 5667 5668 5668 5669 5669 5669 5670 5671 5672 5673 5675 5676 5677 5679 5680 5681 5682 5684 5685 5686 5687 5689 5690
5656 5656 5658 5659 5659 5660 5660 5660 5659 5658 5658 5658 5658 5662 5660 5660 5660 5660 5660 5660 5660 5660 5661 5661 5661 5662 5662 5662 5663 5664 5665 5666 5668 5669 5670 5671 5672 5674 5675 5676 5677 5678 5679 5680
5646 5646 5648 5650 5651 5650 5651 5651 5652 5652 5651 5650 5650 5656 5653 5653 5652 5652 5653 5653 5652 5652 5652 5653 5653 5654 5654 5654 5655 5656 5657 5658 5659 5660 5661 5662 5663 5664 5665 5666 5667 5668 5669 5670
5637 5637 5638 5640 5643 5642 5642 5643 5643 5643 5643 5642 5643 5648 5646 5645 5644 5644 5644 5644 5644 5644 5644 5644 5645 5645 5645 5646 5646 5647 5648 5649 5649 5650 5651 5652 5653 5654 5655 5656 5657 5657 5658 5659
5625 5626 5629 5631 5632 5632 5633 5634 5634 5633 5633 5633 5635 5637 5638 5636 5635 5635 5635 5635 5635 5635 5634 5635 5635 5636 5636 5636 5637 5637 5638 5639 5640 5640 5641 5642 5642 5643 5644 5645 5646 5646 5646 5647
5613 5615 5617 5619 5620 5621 5622 5623 5623 5623 5624 5624 5626 5626 5628 5626 5625 5625 5625 5625 5625 5625 5625 5625 5625 5626 5626 5627 5627 5628 5628 5629 5629 5630 5630 5631 5631 5632 5632 5633 5634 5634 5634 5635
5602 5603 5605 5607 5609 5609 5610 5613 5613 5613 5614 5614 5614 5616 5617 5616 5615 5615 5615 5614 5614 5614 5614 5615 5615 5615 5616 5616 5617 5617 5618 5618 5618 5618 5619 5619 5620 5620 5620 5621 5621 5622 5622 5622
5591 5592 5593 5595 5597 5596 5598 5603 5602 5603 5603 5603 5603 5606 5605 5605 5604 5604 5604 5603 5604 5604 5604 5604 5604 5604 5604 5605 5605 5606 5606 5607 5607 5606 5606 5607 5607 5608 5608 5608 5608 5609 5609 5609
5580 5581 5580 5582 5584 5584 5591 5590 5591 5591 5592 5592 5592 5593 5593 5593 5593 5592 5592 5592 5592 5592 5592 5592 5592 5593 5593 5593 5593 5594 5594 5594 5594 5594 5594 5594 5594 5594 5594 5594 5595 5595 5595 5595
5569 5569 5569 5570 5570 5573 5577 5578 5578 5578 5580 5580 5579 5580 5580 5580 5580 5581 5581 5580 5580 5580 5580 5580 5581 5581 5581 5581 5581 5581 5581 5581 5581 5581 5581 5580 5580 5580 5580 5580 5580 5580 5580 5581
5557 5558 5559 5559 5559 5561 5566 5566 5565 5566 5567 5568 5567 5567 5568 5567 5568 5570 5569 5568 5568 5568 5568 5568 5568 5568 5569 5569 5568 5568 5568 5568 5568 5567 5567 5566 5566 5566 5566 5566 5566 5565 5565 5565
5546 5546 5547 5548 5547 5549 5553 5553 5553 5555 5556 5555 5554 5555 5555 5555 5556 5556 5555 5555 5555 5555 5555 5555 5555 5555 5555 5555 5555 5555 5554 5554 5554 5553 5552 5552 5551 5551 5551 5551 5551 5550 5550 5550
5535 5535 5536 5536 5537 5541 5541 5541 5542 5542 5542 5542 5542 5542 5542 5542 5542 5542 5543 5542 5542 5542 5542 5542 5542 5542 5542 5541 5540 5540 5540 5540 5539 5538 5538 5537 5536 5536 5535 5535 5535 5535 5535 5535
5523 5525 5524 5526 5528 5528 5528 5528 5528 5528 5529 5529 5529 5530 5530 5530 5530 5530 5530 5530 5530 5530 5529 5529 5528 5528 5528 5527 5526 5526 5525 5525 5524 5523 5523 5522 5521 5521 5520 5520 5520 5519 5519 5519
5512 5512 5512 5513 5515 5516 5516 5516 5516 5516 5516 5517 5517 5517 5517 5518 5518 5518 5518 5518 5518 5517 5516 5516 5515 5515 5514 5513 5512 5512 5511 5510 5509 5509 5508 5507 5507 5506 5506 5505 5505 5504 5504 5503
5501 5500 5500 5501 5503 5503 5504 5504 5504 5504 5504 5504 5505 5505 5505 5505 5506 5506 5506 5505 5505 5504 5503 5503 5502 5501 5501 5500 5499 5498 5497 5496 5495 5495 5494 5493 5492 5491 5491 5490 5490 5489 5489 5487
5490 5490 5490 5490 5491 5491 5492 5492 5492 5492 5492 5492 5493 5493 5493 5493 5493 5493 5493 5492 5492 5491 5490 5490 5489 5488 5487 5487 5486 5484 5483 5482 5481 5481 5480 5479 5478 5477 5476 5475 5475 5474 5473 5473